Wind_Speed
6 6 6 11 15 14 13 12 7 9 15 16 11 6 6 8 21 28 21 13 19 9 16 23 27 30 31 30 30 29 28 29 29 28 27 25 23 24 24 24 21 18 19 20
5 5 10 16 16 14 18 17 16 17 18 9 13 17 8 2 4 13 12 18 19 1 8 18 17 27 31 30 31 31 30 28 30 29 29 27 24 22 23 24 23 21 23 25
9 6 9 12 15 14 17 16 10 15 10 3 5 6 11 10 10 11 14 19 23 24 12 12 11 13 30 32 31 32 32 29 28 28 26 29 25 22 23 27 31 29 29 30
4 2 10 7 6 13 17 15 9 3 5 5 5 13 17 12 14 15 19 22 23 25 25 14 16 20 24 27 30 31 33 32 28 27 28 28 29 31 29 29 29 30 31 30
3 4 12 18 9 2 5 7 7 4 3 5 13 15 9 13 20 20 19 20 22 21 21 23 3 17 13 22 23 27 30 31 28 26 31 34 36 34 34 34 32 32 31 31
2 3 5 4 5 7 12 3 1 2 2 3 8 3 3 12 16 16 17 18 21 22 18 15 3 18 22 24 17 32 34 33 33 34 32 33 34 35 35 33 33 32 30 26
9 3 7 10 9 17 2 2 3 4 4 5 1 2 14 12 14 15 15 16 17 19 17 14 8 6 24 24 26 34 34 32 33 33 34 33 33 35 35 34 34 32 31 27
5 4 9 6 9 2 4 2 2 0 6 12 11 13 8 11 15 17 18 17 15 16 16 12 8 1 12 19 23 25 29 33 33 33 36 37 37 36 36 36 35 33 33 32
6 5 3 6 3 2 4 2 3 5 9 7 10 10 9 8 12 17 18 17 15 14 12 9 6 4 9 16 18 21 26 29 33 35 37 37 37 38 38 39 38 39 38 37
1 4 7 10 5 2 6 9 5 7 2 6 7 9 11 12 14 16 15 15 12 8 7 6 4 4 9 13 15 18 23 28 32 36 38 39 41 40 42 42 42 41 37 38
3 4 10 12 2 15 15 15 9 4 2 2 6 10 9 9 11 11 10 9 8 5 6 7 7 9 10 12 18 25 29 31 34 36 37 38 37 37 38 33 32 33 33 26
3 11 8 15 15 16 14 11 4 7 2 6 6 10 10 9 9 7 4 3 1 5 6 7 8 11 13 15 19 27 30 32 35 36 36 37 38 37 31 32 30 27 27 22
5 16 22 19 5 3 6 7 7 6 7 7 8 6 6 9 10 8 5 5 3 4 4 5 8 11 12 16 21 25 30 35 37 39 39 42 42 41 40 34 31 24 22 20
16 7 12 18 7 7 8 8 6 9 10 10 9 7 7 8 8 7 9 11 11 8 7 6 9 11 9 11 17 25 30 34 36 38 38 38 36 35 33 31 32 30 27 24
12 10 12 15 14 6 3 2 5 8 10 10 8 6 6 6 9 10 12 14 14 14 16 17 19 21 18 20 26 31 33 35 36 36 34 33 32 32 29 27 29 30 28 23
9 7 9 14 12 7 3 4 4 1 3 6 6 4 6 8 10 12 13 14 14 17 19 21 25 27 31 36 38 38 37 34 33 31 31 29 26 26 28 27 27 26 24 21
16 19 18 15 15 11 7 5 6 2 1 3 4 5 8 10 12 13 14 14 16 20 22 23 26 27 28 29 30 30 29 28 27 25 25 26 26 26 26 25 23 22 21 19
9 8 9 9 10 8 9 4 2 2 1 2 4 8 10 12 14 17 18 18 20 23 22 23 23 23 23 23 23 25 25 23 23 24 23 23 24 23 22 21 19 19 19 17
12 11 10 8 6 5 6 4 2 1 1 1 6 11 13 15 17 20 21 21 22 23 20 18 18 19 20 19 18 17 18 21 21 22 23 23 23 23 21 19 17 16 14 13
14 11 9 8 6 4 3 3 3 3 4 7 10 14 17 19 20 21 21 22 21 21 19 18 19 19 18 14 15 18 19 20 21 23 24 24 23 21 18 16 14 14 13 11
13 11 10 8 6 4 2 2 3 6 9 11 13 17 19 21 20 21 21 23 20 19 19 18 17 17 17 16 17 19 20 21 21 22 21 20 19 17 15 13 12 11 10 8
11 8 7 5 4 3 1 1 3 7 10 14 17 20 22 23 22 22 20 20 20 17 18 18 17 16 16 16 17 17 18 17 18 17 16 15 14 13 11 10 9 9 8 6
10 8 5 3 2 1 2 4 7 9 13 15 18 21 22 22 20 20 21 19 19 18 18 16 15 15 15 16 15 15 15 15 15 14 13 13 12 11 10 8 7 7 6 5
10 7 5 3 1 2 5 8 9 11 14 16 18 18 19 21 20 18 20 20 18 17 16 16 15 14 14 14 14 14 13 13 13 12 11 11 10 9 8 6 5 5 4 3
6 6 5 2 2 6 8 9 11 13 14 16 17 16 16 18 18 22 20 19 17 15 16 15 14 13 13 13 12 12 12 11 11 10 9 8 7 6 5 4 4 3 2 1
2 4 4 2 5 7 8 9 12 14 15 17 16 15 16 17 21 22 20 18 15 15 15 15 14 13 12 12 11 11 10 10 9 8 7 6 5 4 3 1 1 1 2 2
1 1 3 5 4 3 5 8 12 15 14 15 17 16 19 21 21 20 18 16 14 13 13 13 12 12 11 11 10 9 9 7 6 6 5 3 2 1 1 2 3 4 5 5
Wind_Direction
242 258 274 281 288 292 276 267 232 273 276 296 297 268 136 60 316 303 302 332 335 243 228 224 223 219 210 204 206 199 198 198 199 203 205 205 202 194 195 195 196 198 200 208
270 304 303 294 283 280 272 267 271 265 264 324 333 273 131 190 322 345 21 6 20 29 233 248 228 232 226 219 207 203 202 202 200 200 201 201 199 194 197 199 199 202 207 215
281 323 315 284 269 257 249 248 252 264 291 18 305 134 31 44 40 11 16 18 13 12 346 220 231 248 231 227 223 209 206 205 205 206 202 199 197 196 196 202 208 211 215 217
274 264 262 265 291 275 248 237 250 202 33 297 322 90 64 38 17 9 6 9 5 6 3 355 206 215 219 223 226 222 213 207 205 206 205 200 198 202 202 202 203 208 214 217
178 222 288 304 283 43 319 217 97 104 336 325 337 183 64 20 4 1 0 360 0 358 0 355 256 187 214 215 221 223 221 220 207 204 202 202 203 204 206 208 206 209 212 216
154 204 259 224 285 347 328 187 246 260 263 338 349 46 293 342 352 355 354 351 352 351 353 15 297 186 193 200 238 224 220 217 212 206 206 203 203 207 208 206 209 208 207 205
213 231 275 271 298 302 224 154 242 292 333 351 82 305 321 332 348 358 353 352 353 346 358 11 13 232 201 201 204 207 206 210 209 206 207 208 206 207 208 201 197 187 179 171
188 172 254 344 310 210 213 184 184 86 349 337 355 21 21 5 4 4 356 349 359 354 355 7 22 256 213 202 199 200 202 198 198 194 196 196 197 192 186 184 178 171 170 163
164 207 274 310 258 148 290 312 344 346 0 2 6 22 20 11 1 2 360 348 350 356 1 0 29 87 174 181 183 188 189 187 188 186 184 181 186 178 173 175 176 165 160 149
272 39 329 340 27 6 289 279 354 330 106 326 356 9 354 352 359 2 359 350 346 4 27 47 71 127 159 171 184 188 178 171 170 169 167 165 167 166 164 164 160 152 142 140
1 318 325 15 344 273 292 284 274 258 323 11 353 358 354 7 358 1 352 346 344 25 62 93 115 144 159 169 172 166 163 162 162 164 164 163 163 161 160 151 144 135 129 128
294 251 208 238 303 307 299 300 249 226 356 1 6 354 356 16 22 31 76 60 25 83 80 101 126 134 147 162 173 165 158 155 154 154 151 147 141 131 130 130 128 129 125 130
280 309 293 310 5 38 116 111 98 63 29 20 28 33 30 38 38 29 85 99 111 98 108 118 126 135 146 160 166 164 153 146 142 139 132 127 125 125 117 118 118 118 116 124
30 354 31 36 38 66 76 87 72 58 44 37 38 47 49 62 72 83 100 110 119 115 104 101 110 112 133 158 163 151 141 138 137 135 133 132 133 133 132 133 124 123 127 125
32 65 69 66 66 50 97 32 17 33 39 44 43 47 73 95 99 109 122 125 126 121 121 128 124 120 129 139 136 133 134 137 137 136 136 135 134 132 130 128 132 136 138 140
14 44 36 42 51 56 346 312 296 354 56 45 40 80 116 123 129 133 138 139 135 125 128 130 127 132 139 141 139 138 137 137 137 137 136 134 132 134 135 133 134 132 128 124
20 12 0 1 7 4 336 286 265 245 89 72 103 133 142 145 141 139 137 140 136 131 131 132 129 138 140 142 140 135 134 133 134 132 136 136 136 137 136 135 138 133 126 124
8 5 351 356 359 352 336 333 217 196 173 115 144 158 159 156 149 143 141 140 137 133 132 135 141 143 143 141 135 134 133 135 137 134 135 136 136 137 138 138 143 135 124 116
359 354 352 352 4 347 329 312 280 217 161 177 177 170 166 159 153 149 145 143 136 131 126 136 140 139 134 133 131 137 143 140 141 139 139 139 137 139 143 143 133 122 115 113
350 354 351 343 347 327 304 253 232 222 191 188 178 168 160 156 156 152 149 139 135 132 137 140 139 132 128 141 146 143 144 145 144 140 140 139 139 138 137 132 128 120 117 114
353 354 348 343 341 343 322 271 227 198 182 181 179 168 161 154 155 153 150 140 135 140 144 145 140 135 139 140 143 144 145 143 139 137 137 134 131 130 131 130 121 112 112 117
356 355 355 343 330 331 4 189 189 181 175 172 170 168 164 158 157 156 152 148 145 147 142 134 135 144 144 144 145 144 141 139 135 133 131 128 128 128 126 123 121 117 116 114
4 9 3 347 2 72 118 150 161 169 167 167 167 165 164 159 160 157 145 144 143 141 135 141 144 138 137 139 138 137 135 133 130 133 132 130 128 128 125 125 121 112 112 105
12 23 28 41 76 147 149 144 157 161 165 165 167 168 168 162 156 154 148 144 144 140 144 140 137 136 138 136 136 135 135 134 133 133 132 130 130 129 128 121 110 97 101 98
23 31 27 18 148 136 142 147 153 155 160 159 161 162 164 160 162 150 149 145 142 146 139 134 132 133 135 134 135 135 135 133 132 131 130 132 131 130 125 124 112 90 60 33
338 346 14 83 147 154 159 162 159 156 161 155 153 158 159 158 153 147 143 139 145 142 137 135 136 137 137 134 135 135 135 132 132 132 133 136 133 128 127 115 65 283 277 302
221 139 131 143 154 160 173 171 163 157 163 160 151 148 151 148 144 140 138 141 143 144 139 139 139 139 140 138 139 136 134 131 126 124 124 124 129 161 248 276 289 295 304 304
Height
1431 1432 1434 1433 1431 1429 1431 1429 1431 1417 1411 1399 1396 1390 1390 1395 1389 1385 1379 1375 1372 1370 1367 1370 1370 1372 1373 1374 1378 1383 1387 1392 1396 1403 1410 1415 1418 1422 1428 1433 1438 1443 1447 1451
1430 1429 1429 1429 1426 1426 1422 1418 1413 1407 1402 1395 1398 1387 1387 1389 1388 1385 1385 1381 1370 1371 1368 1362 1364 1369 1374 1378 1375 1380 1385 1390 1395 1400 1407 1414 1419 1422 1426 1433 1438 1443 1446 1449
1430 1430 1430 1427 1416 1413 1407 1406 1404 1406 1397 1399 1395 1383 1387 1386 1386 1388 1386 1380 1375 1374 1372 1363 1361 1360 1368 1376 1381 1378 1382 1387 1393 1399 1404 1411 1418 1423 1425 1428 1433 1439 1442 1445
1440 1436 1439 1409 1403 1402 1398 1394 1392 1394 1398 1398 1392 1389 1386 1390 1386 1384 1380 1376 1375 1370 1365 1361 1359 1360 1364 1370 1377 1382 1381 1383 1390 1397 1402 1409 1414 1417 1421 1425 1429 1433 1437 1441
1449 1438 1418 1408 1398 1398 1397 1391 1393 1395 1396 1394 1387 1387 1388 1387 1385 1381 1379 1376 1374 1371 1366 1357 1355 1358 1358 1364 1373 1379 1384 1388 1388 1395 1398 1403 1409 1413 1417 1421 1425 1429 1433 1437
1438 1436 1423 1399 1395 1396 1395 1395 1392 1392 1392 1389 1387 1388 1387 1385 1383 1380 1377 1374 1371 1368 1364 1361 1356 1356 1360 1367 1367 1374 1377 1383 1388 1391 1396 1401 1406 1411 1415 1419 1422 1426 1430 1434
1426 1440 1419 1397 1394 1393 1402 1400 1394 1392 1389 1389 1390 1389 1385 1382 1379 1376 1375 1373 1370 1367 1362 1358 1359 1358 1359 1362 1367 1372 1376 1379 1387 1391 1396 1401 1405 1408 1412 1416 1419 1422 1425 1429
1423 1436 1423 1395 1391 1391 1394 1390 1390 1390 1387 1386 1385 1385 1384 1380 1376 1372 1370 1369 1369 1366 1362 1362 1361 1361 1361 1362 1367 1372 1376 1377 1385 1387 1391 1395 1399 1404 1406 1410 1414 1418 1421 1425
1413 1410 1399 1397 1394 1391 1390 1388 1386 1386 1386 1383 1383 1383 1384 1383 1378 1373 1371 1369 1367 1364 1362 1364 1364 1364 1364 1366 1367 1371 1375 1377 1382 1385 1389 1391 1395 1399 1403 1407 1408 1411 1417 1422
1400 1401 1400 1397 1393 1391 1390 1388 1387 1387 1386 1385 1383 1382 1380 1376 1374 1373 1374 1372 1370 1367 1365 1365 1365 1365 1365 1367 1370 1373 1376 1378 1381 1383 1385 1387 1391 1397 1399 1404 1405 1410 1421 1422
1401 1401 1402 1395 1393 1388 1387 1386 1387 1387 1385 1383 1383 1381 1381 1379 1377 1375 1375 1372 1371 1369 1368 1366 1366 1368 1368 1370 1372 1373 1376 1378 1379 1382 1386 1388 1394 1398 1401 1409 1414 1420 1421 1434
1408 1403 1399 1394 1390 1386 1383 1382 1383 1385 1385 1384 1383 1380 1379 1378 1378 1378 1377 1374 1373 1370 1369 1370 1368 1368 1369 1372 1375 1375 1377 1380 1382 1384 1390 1394 1397 1407 1415 1418 1422 1427 1427 1430
1402 1397 1394 1391 1390 1386 1383 1384 1386 1386 1385 1384 1383 1381 1380 1378 1377 1377 1377 1376 1375 1372 1372 1373 1372 1372 1373 1374 1377 1380 1382 1383 1388 1390 1397 1400 1405 1413 1416 1421 1422 1429 1433 1437
1398 1396 1395 1392 1389 1388 1388 1388 1388 1387 1386 1384 1384 1382 1381 1381 1380 1381 1382 1381 1380 1378 1378 1377 1376 1376 1379 1380 1383 1385 1387 1391 1396 1400 1404 1408 1413 1417 1422 1427 1427 1438 1444 1444
1400 1398 1397 1397 1393 1390 1390 1391 1390 1388 1387 1386 1386 1384 1384 1384 1384 1386 1387 1386 1385 1383 1383 1384 1382 1382 1383 1386 1388 1390 1395 1400 1404 1406 1409 1413 1417 1422 1428 1432 1435 1437 1438 1442
1403 1399 1397 1396 1396 1395 1393 1392 1391 1390 1389 1387 1387 1387 1387 1388 1389 1390 1390 1390 1389 1388 1390 1389 1388 1390 1391 1392 1392 1397 1400 1405 1409 1412 1416 1419 1423 1426 1429 1434 1441 1442 1441 1444
1403 1400 1398 1397 1397 1396 1395 1393 1392 1391 1389 1388 1389 1389 1390 1391 1391 1393 1393 1394 1394 1394 1396 1396 1397 1399 1400 1403 1403 1404 1408 1412 1417 1418 1422 1424 1427 1431 1435 1440 1449 1448 1448 1449
1408 1406 1404 1401 1399 1397 1394 1393 1392 1392 1391 1391 1391 1391 1392 1393 1394 1396 1396 1398 1399 1400 1402 1404 1405 1407 1409 1410 1410 1412 1415 1419 1422 1424 1428 1430 1432 1437 1442 1445 1454 1453 1448 1446
1407 1404 1402 1400 1399 1398 1396 1395 1394 1393 1392 1392 1392 1393 1395 1396 1397 1399 1400 1403 1405 1405 1409 1412 1413 1414 1416 1417 1419 1421 1423 1423 1426 1429 1431 1433 1436 1442 1448 1453 1452 1450 1448 1449
1406 1404 1402 1400 1398 1397 1396 1395 1394 1394 1393 1393 1394 1395 1397 1399 1401 1402 1405 1406 1409 1410 1413 1415 1417 1418 1419 1422 1424 1425 1428 1429 1431 1433 1435 1437 1441 1445 1449 1450 1451 1448 1449 1451
1406 1404 1402 1400 1398 1397 1396 1395 1395 1395 1394 1395 1395 1398 1400 1403 1405 1407 1408 1408 1412 1414 1416 1418 1420 1421 1423 1425 1428 1430 1432 1434 1436 1437 1440 1440 1442 1445 1449 1450 1449 1449 1451 1453
1407 1404 1402 1401 1399 1398 1397 1396 1396 1396 1397 1397 1398 1399 1402 1405 1408 1410 1412 1413 1415 1418 1420 1422 1424 1425 1426 1429 1432 1434 1436 1439 1439 1441 1443 1443 1445 1447 1449 1450 1451 1451 1453 1454
1407 1405 1403 1402 1401 1399 1399 1398 1398 1398 1399 1401 1402 1403 1405 1409 1412 1414 1415 1419 1420 1422 1424 1426 1428 1429 1431 1433 1435 1438 1440 1441 1442 1444 1446 1447 1448 1451 1451 1452 1452 1452 1453 1454
1408 1407 1406 1404 1403 1402 1401 1401 1401 1401 1402 1403 1406 1408 1410 1411 1415 1418 1420 1421 1423 1425 1427 1429 1431 1433 1435 1436 1438 1440 1443 1443 1445 1447 1448 1449 1451 1452 1453 1454 1454 1453 1453 1453
1411 1409 1408 1407 1406 1405 1404 1404 1404 1405 1406 1407 1410 1412 1414 1415 1418 1420 1423 1425 1427 1429 1431 1433 1435 1437 1439 1440 1442 1444 1446 1446 1448 1450 1451 1452 1452 1453 1453 1454 1453 1454 1453 1454
1412 1411 1410 1409 1408 1408 1408 1408 1408 1408 1410 1411 1413 1415 1417 1419 1421 1424 1427 1429 1432 1434 1435 1436 1438 1441 1442 1444 1445 1447 1448 1449 1450 1452 1453 1453 1453 1453 1454 1453 1454 1454 1454 1454
1414 1413 1412 1411 1411 1411 1411 1411 1411 1412 1413 1414 1415 1418 1420 1422 1425 1428 1431 1433 1436 1437 1438 1440 1442 1443 1445 1446 1448 1449 1449 1450 1451 1453 1453 1453 1453 1453 1454 1454 1454 1454 1453 1453